Flag for Austria Weather past 2 weeks in Mattersburg, Burgenland, Austria

Now
46 °F

Cool.


Feels Like: 41 °F
Forecast: 40 / 49 °F
Wind: 9 mph from Northwest

Location: Eisenstadt

Current Time: Mar 27, 2015 at 8:45:16 AM

Latest Report: Mar 27, 2015 at 8:00 AM


Visibility: N/A

Pressure: 29.84 "Hg

Humidity: 74%

Dew point: 38 °F

Location of MattersburgLocation

Historic Weather in Mattersburg — Graph

°F

Mattersburg temperature yesterday

Maximum temperature yesterday: 64 °F (at 4:00 PM)
Minimum temperature yesterday: 46 °F (at 6:00 AM)
Average temperature yesterday: 53 °F

Past Weeks' High & Low Weather Summary

 TemperatureHumidityPressure
High64 °F (Mar 26, 4:00 PM)94% (Mar 26, 10:00 PM)30.53 "Hg (Mar 26, 10:00 PM)
Low31 °F (Mar 19, 6:00 AM)36% (Mar 18, 4:00 PM)29.70 "Hg (Mar 26, 5:00 PM)
Average45 °F68%30.15 "Hg
* Reported Mar 12 7:00 AM — Mar 27 7:00 AM, Mattersburg, Weather by CustomWeather, © 2015

Note: Actual official high and low records may vary slightly from our data, if they occured in-between our weather recording intervals... More about our weather records

Advertising

Mattersburg weather history for previous 24 hours

 ConditionsComfort  
Time TempWeatherWind HumidityBarometerVisibility
7:00 AM
Fri, Mar 27
46 °FOvercast.8 mph75%29.83 "Hg7 mi
6:00 AM46 °FLight rain. Overcast.8 mph78%29.82 "Hg6 mi
5:00 AM46 °FOvercast.9 mph75%29.80 "Hg6 mi
3:00 AM49 °FCool.6 mph71%29.78 "HgN/A
2:00 AM49 °FCool.6 mph75%29.77 "HgN/A
1:00 AM49 °FPassing clouds.5 mph80%29.76 "Hg6 mi
12:00 AM50 °FCool.6 mph84%29.75 "HgN/A
11:00 PM
Thu, Mar 26
51 °FCool.6 mph89%29.75 "HgN/A
10:00 PM53 °FLight rain. Overcast.2 mph94%29.75 "Hg6 mi
9:00 PM54 °FCool.2 mph86%29.75 "HgN/A
8:00 PM55 °FCool.2 mph77%29.73 "HgN/A
7:00 PM55 °FPassing clouds.1 mph76%29.72 "Hg6 mi
6:00 PM62 °FRefreshingly cool.3 mph60%29.70 "HgN/A
5:00 PM63 °FMild.3 mph59%29.70 "HgN/A
4:00 PM64 °FOvercast.5 mph56%29.71 "Hg6 mi
3:00 PM62 °FCool.5 mph66%29.72 "HgN/A
2:00 PM60 °FCool.5 mph69%29.73 "HgN/A
1:00 PM57 °FOvercast.5 mph75%29.76 "Hg6 mi
12:00 PM55 °FCool.5 mph82%29.77 "HgN/A
11:00 AM50 °FSprinkles. Cloudy.3 mph90%29.78 "HgN/A
10:00 AM50 °FOvercast.3 mph90%29.79 "Hg6 mi
9:00 AM49 °FCool.5 mph90%29.78 "HgN/A
8:00 AM48 °FCool.6 mph92%29.76 "HgN/A
Weather by CustomWeather, © 2015

See weather overviewHow to use our weather pages